• In Portugal
  • List of Countries
  • For 7 days
  • Water Temperature
  • Satellite Maps
  • Weather Map
  • Weather Widgets
  • user-avatar
    Login

    Hourly Weather Trypolis

    Today, 21 May, Monday

    Time Temperature Precipitation Wind Pressure Humidity
    00:00 +24°C° 0 mm 2 mps 756 mmHg 74%
    01:00 +24°C° 0 mm 2 mps 756 mmHg 75%
    02:00 +24°C° 0 mm 2 mps 756 mmHg 77%
    03:00 +23°C° 0 mm 2 mps 756 mmHg 78%
    04:00 +23°C° 0 mm 2 mps 756 mmHg 80%
    05:00 +24°C° 0 mm 2 mps 756 mmHg 77%
    06:00 +24°C° 0 mm 2 mps 756 mmHg 74%
    07:00 +24°C° 0 mm 2 mps 756 mmHg 72%
    08:00 +26°C° 0 mm 2 mps 756 mmHg 65%
    09:00 +27°C° 0 mm 3 mps 757 mmHg 58%
    10:00 +29°C° 0 mm 3 mps 757 mmHg 51%
    11:00 +30°C° 0 mm 3 mps 757 mmHg 46%
    12:00 +33°C° 0 mm 4 mps 756 mmHg 41%
    13:00 +34°C° 0 mm 4 mps 756 mmHg 36%
    14:00 +34°C° 0 mm 4 mps 756 mmHg 37%
    15:00 +34°C° 0 mm 4 mps 756 mmHg 37%
    16:00 +34°C° 0 mm 5 mps 755 mmHg 38%
    17:00 +33°C° 0 mm 5 mps 756 mmHg 42%
    18:00 +32°C° 0 mm 4 mps 756 mmHg 46%
    19:00 +30°C° 0 mm 4 mps 756 mmHg 49%
    20:00 +29°C° 0 mm 4 mps 756 mmHg 51%
    21:00 +29°C° 0 mm 3 mps 757 mmHg 53%
    22:00 +28°C° 0 mm 3 mps 757 mmHg 56%
    23:00 +28°C° 0 mm 3 mps 757 mmHg 57%

    Tomorrow, 22 May, Tuesday

    Time Temperature Precipitation Wind Pressure Humidity
    00:00 +28°C° 0 mm 3 mps 757 mmHg 58%
    01:00 +27°C° 0 mm 3 mps 757 mmHg 60%
    02:00 +27°C° 0 mm 3 mps 757 mmHg 60%
    03:00 +27°C° 0 mm 4 mps 757 mmHg 60%
    04:00 +27°C° 0 mm 4 mps 757 mmHg 60%
    05:00 +27°C° 0 mm 4 mps 757 mmHg 57%
    06:00 +28°C° 0 mm 4 mps 757 mmHg 54%
    07:00 +29°C° 0 mm 4 mps 758 mmHg 51%
    08:00 +32°C° 0 mm 5 mps 758 mmHg 43%
    09:00 +34°C° 0 mm 5 mps 758 mmHg 35%
    10:00 +36°C° 0 mm 5 mps 758 mmHg 26%
    11:00 +39°C° 0 mm 5 mps 757 mmHg 23%
    12:00 +40°C° 0 mm 5 mps 757 mmHg 21%
    13:00 +41°C° 0 mm 5 mps 757 mmHg 18%
    14:00 +42°C° 0 mm 6 mps 756 mmHg 17%
    15:00 +42°C° 0 mm 6 mps 756 mmHg 16%
    16:00 +42°C° 0 mm 6 mps 755 mmHg 16%
    17:00 +40°C° 0 mm 7 mps 756 mmHg 21%
    18:00 +39°C° 0 mm 8 mps 756 mmHg 26%
    19:00 +37°C° 0 mm 9 mps 756 mmHg 30%
    20:00 +33°C° 0 mm 9 mps 757 mmHg 41%
    21:00 +31°C° 0 mm 10 mps 758 mmHg 52%
    22:00 +27°C° 0 mm 10 mps 758 mmHg 63%
    23:00 +26°C° 0 mm 8 mps 759 mmHg 68%

    Day after tomorrow, 23 May, Wednesday

    Time Temperature Precipitation Wind Pressure Humidity
    00:00 +24°C° 0 mm 7 mps 759 mmHg 74%
    01:00 +23°C° 0 mm 6 mps 759 mmHg 80%
    02:00 +23°C° 0 mm 5 mps 759 mmHg 81%
    03:00 +22°C° 0 mm 4 mps 759 mmHg 82%
    04:00 +22°C° 0 mm 3 mps 760 mmHg 83%
    05:00 +22°C° 0 mm 3 mps 760 mmHg 81%
    06:00 +24°C° 0 mm 3 mps 761 mmHg 78%
    07:00 +23°C° 0 mm 4 mps 761 mmHg 76%
    08:00 +25°C° 0 mm 4 mps 761 mmHg 69%
    09:00 +27°C° 0 mm 4 mps 762 mmHg 62%
    10:00 +28°C° 0 mm 4 mps 762 mmHg 54%
    11:00 +29°C° 0 mm 5 mps 762 mmHg 50%
    12:00 +30°C° 0 mm 5 mps 762 mmHg 46%
    13:00 +30°C° 0 mm 5 mps 762 mmHg 42%
    14:00 +30°C° 0 mm 5 mps 762 mmHg 42%
    15:00 +30°C° 0 mm 5 mps 762 mmHg 43%
    16:00 +30°C° 0 mm 5 mps 761 mmHg 43%
    17:00 +28°C° 0 mm 5 mps 762 mmHg 47%
    18:00 +27°C° 0 mm 4 mps 762 mmHg 51%
    19:00 +26°C° 0 mm 4 mps 762 mmHg 55%
    20:00 +25°C° 0 mm 4 mps 762 mmHg 58%
    21:00 +25°C° 0 mm 3 mps 763 mmHg 61%
    22:00 +24°C° 0 mm 3 mps 763 mmHg 64%
    23:00 +24°C° 0 mm 2 mps 763 mmHg 66%

    24 May, Thursday

    Time Temperature Precipitation Wind Pressure Humidity
    00:00 +24°C° 0 mm 2 mps 763 mmHg 68%
    01:00 +23°C° 0 mm 2 mps 763 mmHg 69%
    02:00 +23°C° 0 mm 1 mps 762 mmHg 70%
    03:00 +23°C° 0 mm 1 mps 762 mmHg 70%
    04:00 +22°C° 0 mm 1 mps 762 mmHg 71%
    05:00 +23°C° 0 mm 1 mps 762 mmHg 64%
    06:00 +24°C° 0 mm 1 mps 762 mmHg 57%
    07:00 +24°C° 0 mm 1 mps 762 mmHg 50%
    08:00 +26°C° 0 mm 1 mps 762 mmHg 40%
    09:00 +28°C° 0 mm 2 mps 763 mmHg 30%
    10:00 +30°C° 0 mm 2 mps 763 mmHg 20%
    11:00 +31°C° 0 mm 3 mps 762 mmHg 19%
    12:00 +33°C° 0 mm 4 mps 762 mmHg 18%
    13:00 +34°C° 0 mm 5 mps 762 mmHg 17%
    14:00 +34°C° 0 mm 5 mps 761 mmHg 20%
    15:00 +34°C° 0 mm 5 mps 761 mmHg 22%
    16:00 +33°C° 0 mm 5 mps 760 mmHg 24%
    17:00 +32°C° 0 mm 5 mps 761 mmHg 28%
    18:00 +30°C° 0 mm 5 mps 761 mmHg 32%
    19:00 +28°C° 0 mm 4 mps 761 mmHg 36%
    20:00 +28°C° 0 mm 4 mps 761 mmHg 38%
    21:00 +27°C° 0 mm 3 mps 761 mmHg 40%
    22:00 +27°C° 0 mm 3 mps 762 mmHg 42%
    23:00 +26°C° 0 mm 3 mps 761 mmHg 43%

    25 May, Friday

    Time Temperature Precipitation Wind Pressure Humidity
    00:00 +26°C° 0 mm 3 mps 761 mmHg 44%
    01:00 +26°C° 0 mm 3 mps 761 mmHg 45%
    02:00 +25°C° 0 mm 2 mps 761 mmHg 46%
    03:00 +25°C° 0 mm 2 mps 761 mmHg 47%
    04:00 +25°C° 0 mm 2 mps 761 mmHg 48%
    05:00 +25°C° 0 mm 2 mps 761 mmHg 46%
    06:00 +26°C° 0 mm 2 mps 761 mmHg 44%
    07:00 +26°C° 0 mm 1 mps 761 mmHg 41%
    08:00 +28°C° 0 mm 2 mps 761 mmHg 37%
    09:00 +29°C° 0 mm 2 mps 761 mmHg 32%
    10:00 +31°C° 0 mm 2 mps 761 mmHg 27%
    11:00 +33°C° 0 mm 3 mps 761 mmHg 25%
    12:00 +34°C° 0 mm 3 mps 761 mmHg 23%
    13:00 +35°C° 0 mm 4 mps 761 mmHg 21%
    14:00 +34°C° 0 mm 4 mps 760 mmHg 21%
    15:00 +34°C° 0 mm 4 mps 760 mmHg 22%
    16:00 +34°C° 0 mm 4 mps 760 mmHg 22%
    17:00 +33°C° 0 mm 4 mps 760 mmHg 24%
    18:00 +30°C° 0 mm 4 mps 760 mmHg 27%
    19:00 +29°C° 0 mm 4 mps 760 mmHg 29%
    20:00 +29°C° 0 mm 3 mps 760 mmHg 31%
    21:00 +28°C° 0 mm 2 mps 761 mmHg 33%
    22:00 +27°C° 0 mm 2 mps 761 mmHg 35%
    23:00 +27°C° 0 mm 2 mps 761 mmHg 37%

    26 May, Saturday

    Time Temperature Precipitation Wind Pressure Humidity
    00:00 +26°C° 0 mm 2 mps 760 mmHg 38%
    01:00 +26°C° 0 mm 2 mps 760 mmHg 40%
    02:00 +25°C° 0 mm 2 mps 760 mmHg 42%
    03:00 +25°C° 0 mm 2 mps 760 mmHg 44%
    04:00 +24°C° 0 mm 2 mps 760 mmHg 46%
    05:00 +25°C° 0 mm 2 mps 760 mmHg 44%
    06:00 +25°C° 0 mm 1 mps 760 mmHg 42%
    07:00 +25°C° 0 mm 1 mps 761 mmHg 41%
    08:00 +27°C° 0 mm 1 mps 761 mmHg 35%
    09:00 +28°C° 0 mm 2 mps 761 mmHg 30%
    10:00 +30°C° 0 mm 2 mps 761 mmHg 25%
    11:00 +31°C° 0 mm 2 mps 761 mmHg 23%
    12:00 +33°C° 0 mm 3 mps 761 mmHg 22%
    13:00 +34°C° 0 mm 4 mps 761 mmHg 20%
    14:00 +34°C° 0 mm 4 mps 760 mmHg 21%
    15:00 +33°C° 0 mm 4 mps 760 mmHg 23%
    16:00 +33°C° 0 mm 5 mps 760 mmHg 25%
    17:00 +32°C° 0 mm 4 mps 760 mmHg 28%
    18:00 +30°C° 0 mm 4 mps 761 mmHg 31%
    19:00 +28°C° 0 mm 4 mps 761 mmHg 35%
    20:00 +28°C° 0 mm 4 mps 761 mmHg 37%
    21:00 +27°C° 0 mm 4 mps 761 mmHg 39%
    22:00 +27°C° 0 mm 4 mps 762 mmHg 40%
    23:00 +26°C° 0 mm 3 mps 761 mmHg 41%
    Show more